Date,TemperatureHighF,TemperatureAvgF,TemperatureLowF,DewpointHighF,DewpointAvgF,DewpointLowF,HumidityHigh,HumidityAvg,HumidityLow,PressureMaxIn,PressureMinIn,WindSpeedMaxMPH,WindSpeedAvgMPH,GustSpeedMaxMPH,PrecipitationSumIn
2013-1-1,16.9,7.4,0.5,11.8,5.6,0.1,98,92,78,30.26,30.15,6,3,0,0.00
2013-1-2,26.8,18.4,1.2,25.2,17.6,0.8,98,97,84,30.17,30.03,7,2,0,0.00
2013-1-3,26.8,21.7,14.9,26.3,21.2,14.4,98,98,98,30.19,30.03,8,4,0,0.00
2013-1-4,30.0,20.8,12.0,26.0,19.5,11.5,98,95,83,30.16,29.97,8,4,0,0.00
2013-1-5,38.8,27.8,12.6,37.8,27.1,12.1,98,97,88,30.20,29.83,7,3,0,0.13
2013-1-6,35.4,29.0,17.1,34.9,28.3,16.6,98,97,89,30.29,29.82,10,4,0,0.00
2013-1-7,39.7,28.2,14.9,33.7,26.1,14.4,98,92,76,30.28,29.98,14,4,0,0.00
2013-1-8,39.4,33.3,20.8,38.9,32.8,20.3,98,98,98,30.10,29.89,14,5,0,0.00
2013-1-9,41.4,36.1,27.5,40.1,34.0,27.0,98,93,78,30.43,29.86,9,4,0,0.00
2013-1-10,40.3,32.9,20.3,39.8,32.4,19.8,98,98,98,30.51,29.91,19,7,0,0.41
2013-1-11,46.8,42.9,38.5,46.3,42.4,38.0,98,98,98,29.89,29.57,16,5,0,0.24
2013-1-12,52.5,40.2,26.8,52.0,39.3,26.3,98,97,88,29.96,29.58,11,4,0,0.00
2013-1-13,26.4,20.0,13.3,25.9,19.5,11.9,98,98,93,30.19,29.87,9,4,0,0.00
2013-1-14,25.0,14.4,8.8,18.0,12.8,8.4,98,93,70,30.44,30.19,7,2,0,0.00
2013-1-15,32.0,20.7,10.8,23.8,18.0,10.3,98,90,65,30.44,30.08,7,2,0,0.00
2013-1-16,33.6,27.6,17.6,33.1,25.7,17.1,98,93,76,30.08,29.68,10,4,0,0.00
2013-1-17,31.1,19.3,9.7,30.6,14.0,8.0,98,81,54,30.42,30.03,9,3,0,0.00
2013-1-18,42.8,28.8,8.8,39.8,27.6,8.4,98,95,83,30.45,29.76,14,4,0,0.08
2013-1-19,45.0,37.2,15.8,44.5,34.9,8.6,98,92,61,29.84,29.55,17,4,0,0.00
2013-1-20,16.0,10.1,5.0,8.2,1.8,-0.1,94,69,55,30.27,29.86,21,6,0,0.00
2013-1-21,7.9,2.3,-6.0,3.3,-6.5,-13.8,87,66,53,30.33,30.10,13,6,0,0.00
2013-1-22,5.5,-1.0,-8.0,-5.8,-10.2,-16.0,79,64,54,30.39,30.27,10,4,0,0.00
2013-1-23,18.5,10.4,0.5,16.7,5.6,-6.2,98,81,65,30.41,30.07,10,4,0,0.00
2013-1-24,18.7,10.8,1.4,16.0,3.6,-4.6,98,72,65,30.66,30.38,10,3,0,0.00
2013-1-25,24.3,19.7,14.0,23.8,18.3,10.3,98,95,65,30.37,29.91,9,3,0,0.00
2013-1-26,25.7,17.3,7.7,22.4,15.4,7.3,98,93,76,30.39,30.18,6,3,0,0.00
2013-1-27,35.8,31.6,26.8,35.3,30.9,22.3,98,97,82,30.36,29.89,24,10,0,0.35
2013-1-28,40.3,36.2,31.1,39.8,35.7,30.6,98,98,98,29.95,29.75,10,3,0,0.16
2013-1-29,54.1,44.1,36.3,53.5,43.6,35.8,98,98,98,29.82,29.42,16,5,0,2.00
2013-1-30,39.6,28.7,17.1,39.1,28.2,16.6,98,98,98,29.52,29.19,19,9,0,0.20
2013-1-31,19.0,12.8,3.6,17.3,11.7,2.3,98,96,84,30.09,29.52,14,6,0,0.00
2013-2-1,7.5,3.2,-2.4,5.7,-0.7,-4.6,98,84,68,30.28,30.10,12,4,0,0.00
2013-2-2,13.8,7.8,2.1,7.1,4.4,1.1,98,87,63,30.16,30.05,8,3,0,0.00
2013-2-3,18.9,11.1,3.7,13.1,8.7,3.3,98,91,68,30.05,29.91,10,3,0,0.00
2013-2-4,19.6,12.4,5.2,14.4,8.7,1.6,98,86,57,30.04,29.92,7,3,0,0.00
2013-2-5,27.5,18.2,2.5,27.0,16.8,0.5,98,94,81,30.09,29.72,7,3,0,0.00
2013-2-6,35.4,22.5,5.7,34.9,20.8,5.3,98,94,72,30.22,30.08,10,4,0,0.02
2013-2-7,35.6,32.9,23.0,35.1,32.4,22.5,98,98,98,30.12,29.91,9,4,0,0.13
2013-2-8,26.4,20.6,9.1,25.9,20.1,8.7,98,98,98,30.41,30.02,0,0,0,0.00
2013-2-9,30.4,20.9,8.1,29.9,20.4,7.7,98,98,98,30.43,30.10,0,0,0,0.00
2013-2-10,41.7,34.0,16.2,41.2,33.5,15.7,98,98,98,30.10,29.36,20,8,0,1.67
2013-2-11,41.2,33.6,28.0,40.7,33.1,27.5,98,98,98,29.93,29.35,17,7,0,0.00
2013-2-12,29.8,25.3,20.1,27.5,24.6,19.6,98,97,89,30.05,29.85,9,3,0,0.00
2013-2-13,39.9,30.2,20.3,38.3,29.6,19.8,98,98,93,29.85,29.60,7,2,0,0.00
2013-2-14,38.1,33.4,26.4,37.6,32.9,25.9,98,98,98,29.97,29.51,14,4,0,0.11
2013-2-15,27.0,20.9,14.2,25.7,17.0,11.3,98,86,64,30.19,29.98,8,4,0,0.00
2013-2-16,19.6,13.0,6.6,14.0,7.5,4.7,98,79,59,30.21,30.02,11,4,0,0.00
2013-2-17,30.9,17.7,4.8,29.4,11.7,4.0,98,78,56,30.23,29.98,20,5,0,0.00
2013-2-18,41.2,36.0,31.1,40.7,35.5,29.6,98,98,94,29.98,29.34,24,10,0,0.74
2013-2-19,33.3,16.9,8.6,32.8,15.7,6.2,98,95,88,30.13,29.39,14,7,0,0.01
2013-2-20,23.5,15.0,7.0,18.3,12.4,6.1,98,90,72,30.40,30.14,10,5,0,0.00
2013-2-21,28.6,21.9,14.4,28.1,21.4,13.9,98,98,98,30.45,30.15,21,10,0,0.01
2013-2-22,35.4,29.0,25.2,34.6,28.5,24.7,98,98,97,30.14,29.74,22,9,0,0.00
2013-2-23,34.9,27.8,20.3,34.4,27.3,19.8,98,98,98,29.89,29.78,6,3,0,0.03
2013-2-24,40.5,27.9,19.2,36.4,27.0,18.7,98,97,82,30.15,29.90,6,3,0,0.01
2013-2-25,36.3,28.4,17.4,35.8,27.9,16.9,98,98,98,30.18,30.06,6,3,0,0.00
2013-2-26,35.6,33.8,32.7,35.1,33.3,32.2,98,98,98,30.07,29.60,25,18,0,0.02
2013-2-27,36.9,33.9,32.7,36.4,33.4,32.2,98,98,98,29.71,29.55,19,12,0,0.16
2013-2-28,34.7,30.9,25.2,34.2,30.3,24.7,98,98,94,30.10,29.71,19,8,0,0.00
2013-3-1,26.6,24.2,19.9,26.1,23.5,18.7,98,97,90,30.23,30.08,11,7,0,0.00
2013-3-2,27.9,19.8,11.5,22.8,17.3,11.0,98,90,77,30.22,30.14,10,5,0,0.00
2013-3-3,30.9,17.7,5.0,20.5,13.2,4.6,98,84,62,30.18,29.99,9,4,0,0.00
2013-3-4,32.5,23.9,3.4,32.0,22.9,3.0,98,96,86,30.18,30.03,11,7,0,0.00
2013-3-5,33.1,31.0,27.7,32.6,30.3,27.2,98,97,91,30.06,29.89,22,12,0,0.00
2013-3-6,37.4,31.4,27.0,36.4,30.9,26.5,98,98,95,30.28,30.03,11,4,0,0.00
2013-3-7,38.3,28.1,14.4,32.1,26.1,13.9,98,93,75,30.48,30.22,10,5,0,0.00
2013-3-8,38.8,26.2,10.2,36.7,25.6,9.7,98,98,92,30.52,30.31,11,5,0,0.00
2013-3-9,37.0,35.0,31.5,36.5,34.5,31.0,98,98,98,30.31,29.83,17,8,0,0.35
2013-3-10,40.6,36.9,34.5,40.1,36.4,34.0,98,98,98,29.82,29.58,18,6,0,1.73
2013-3-11,38.8,35.4,30.4,38.3,34.9,29.9,98,98,98,29.68,29.43,5,2,0,0.04
2013-3-12,34.0,29.4,23.7,32.4,28.3,23.0,98,96,83,29.96,29.69,8,3,0,0.04
2013-3-13,33.8,25.7,19.4,21.9,19.8,16.9,98,79,55,30.29,29.97,11,5,0,0.00
2013-3-14,36.3,28.1,18.7,32.3,24.7,16.9,98,87,63,30.29,30.04,10,4,0,0.00
2013-3-15,37.0,31.9,28.2,36.5,31.4,27.7,98,98,98,30.04,29.85,19,8,0,0.02
2013-3-16,35.8,27.1,20.5,34.2,26.0,20.0,98,95,82,30.13,29.82,23,8,0,0.01
2013-3-17,30.9,24.1,15.3,30.2,21.8,10.8,98,91,81,30.28,30.07,20,8,0,0.00
2013-3-18,34.5,29.7,19.0,34.0,29.2,18.5,98,98,98,30.07,29.51,20,10,0,0.04
2013-3-19,29.8,21.0,14.5,22.6,17.3,13.4,98,86,70,29.98,29.65,14,6,0,0.01
2013-3-20,23.0,16.9,10.4,13.3,9.5,4.6,85,73,62,30.03,29.84,11,5,0,0.00
2013-3-21,31.1,21.2,11.5,23.0,16.6,8.9,98,83,69,30.03,29.82,9,4,0,0.00
2013-3-22,36.5,24.8,13.1,29.7,21.7,12.6,98,89,69,30.10,29.86,9,4,0,0.00
2013-3-23,35.4,29.7,19.2,34.9,28.9,18.7,98,97,82,30.13,30.07,14,6,0,0.00
2013-3-24,34.5,33.0,29.8,34.0,32.5,29.3,98,98,98,30.07,29.76,27,16,0,0.00
2013-3-25,37.4,31.6,27.9,35.8,30.9,27.4,98,97,87,30.07,29.77,14,6,0,0.00
2013-3-26,42.1,35.2,28.6,37.8,33.7,28.1,98,94,82,30.22,30.07,10,3,0,0.00
2013-3-27,45.5,37.4,28.8,36.4,31.7,28.3,98,82,57,30.28,30.09,9,3,0,0.00
2013-3-28,43.9,34.2,27.3,40.6,32.9,26.8,98,95,72,30.31,30.12,9,3,0,0.00
2013-3-29,43.9,35.1,27.7,41.6,33.1,27.2,98,93,71,30.30,30.11,9,3,0,0.00
2013-3-30,45.7,37.4,27.9,45.2,36.8,27.4,98,98,92,30.24,29.76,17,4,0,0.02
2013-3-31,50.4,41.3,31.6,49.9,40.4,27.5,98,97,79,29.87,29.52,12,4,0,0.00
2013-4-1,36.5,30.8,24.6,28.4,22.7,18.9,97,72,58,30.17,29.87,15,5,0,0.00
2013-4-2,40.5,31.7,24.1,28.9,24.8,22.1,98,77,53,30.32,30.04,10,4,0,0.00
2013-4-3,37.9,32.0,24.4,31.3,27.5,21.9,98,84,53,30.43,30.26,11,6,0,0.00
2013-4-4,58.5,43.0,28.8,46.5,33.8,18.6,89,71,56,30.30,29.87,12,4,0,0.00
2013-4-5,40.8,35.8,30.7,40.1,35.2,30.2,98,98,84,30.24,30.01,16,9,0,0.00
2013-4-6,54.7,41.1,32.7,54.1,40.6,32.2,98,98,98,30.20,29.48,19,10,0,0.11
2013-4-7,52.5,41.7,34.5,52.0,41.2,34.0,98,98,94,29.99,29.47,14,5,0,0.02
2013-4-8,45.5,38.6,32.9,45.0,38.1,32.4,98,98,98,29.99,29.63,18,5,0,1.05
2013-4-9,40.6,38.5,36.5,40.1,38.0,36.0,98,98,98,30.06,29.90,23,13,0,1.45
2013-4-10,38.1,36.5,34.2,37.6,36.0,33.7,98,98,98,30.06,29.89,28,19,0,1.49
2013-4-11,38.5,36.6,35.8,38.0,36.1,35.3,98,98,98,29.98,29.61,29,17,0,0.74
2013-4-12,40.1,36.6,34.3,39.6,36.1,33.8,98,98,98,29.75,29.51,12,6,0,0.16
2013-4-13,41.9,36.6,31.3,39.7,35.5,30.8,98,96,88,29.98,29.66,9,3,0,0.03
2013-4-14,41.0,35.5,28.9,40.5,35.0,28.4,98,98,98,30.03,29.66,17,7,0,0.03
2013-4-15,64.2,50.3,41.0,62.4,49.0,40.5,98,96,70,29.91,29.58,14,4,0,0.39
2013-4-16,53.2,41.8,31.6,49.0,40.4,31.1,98,95,83,30.31,29.90,10,3,0,0.00
2013-4-17,40.6,39.1,37.2,40.1,38.6,36.7,98,98,98,30.35,29.91,22,10,0,0.53
2013-4-18,48.6,42.5,40.1,48.1,42.0,39.6,98,98,98,29.91,29.32,14,6,0,1.20
2013-4-19,42.3,37.8,30.7,41.3,36.4,27.3,98,95,81,29.86,29.17,12,6,0,0.00
2013-4-20,43.3,34.1,24.8,35.1,29.6,24.3,98,85,55,30.44,29.87,12,6,0,0.00
2013-4-21,41.2,37.8,33.1,40.7,37.2,32.6,98,98,92,30.53,30.28,17,10,0,0.00
2013-4-22,49.8,43.7,39.4,47.4,42.8,38.9,98,97,85,30.29,30.02,16,9,0,0.00
2013-4-23,52.3,42.4,37.6,51.8,41.9,37.1,98,98,94,30.02,29.79,10,4,0,0.66
2013-4-24,54.0,41.5,32.4,44.4,37.6,31.9,98,88,54,30.00,29.82,14,5,0,0.00
2013-4-25,53.6,45.2,36.3,44.7,40.9,35.8,98,86,60,30.29,29.89,17,4,0,0.02
2013-4-26,60.1,45.6,36.3,58.4,45.0,35.8,98,98,94,30.31,30.11,20,8,0,0.00
2013-4-27,57.6,49.1,43.3,57.0,48.6,42.8,98,98,98,30.22,30.01,14,6,0,0.00
2013-4-28,51.4,47.3,42.8,50.9,46.8,42.3,98,98,98,30.00,29.78,7,3,0,0.00
2013-4-29,59.4,50.4,45.1,58.8,49.9,44.6,98,98,98,29.82,29.67,16,6,0,0.00
2013-4-30,61.3,52.8,45.9,60.7,52.3,45.4,98,98,98,29.83,29.64,17,9,0,0.00
2013-5-1,59.5,50.8,45.9,58.9,50.3,45.4,98,98,98,30.24,29.84,22,8,0,0.00
2013-5-2,49.1,44.5,39.6,48.6,44.0,39.1,98,98,98,30.25,30.12,23,15,0,0.05
2013-5-3,48.4,42.4,39.2,47.9,41.9,38.7,98,98,98,30.21,30.00,23,16,0,0.27
2013-5-4,53.2,48.3,43.0,52.6,47.8,42.5,98,98,98,30.03,29.93,17,6,0,0.00
2013-5-5,55.6,49.7,42.4,55.0,49.2,41.9,98,98,94,30.04,29.91,12,5,0,0.00
2013-5-6,56.3,50.4,43.5,55.7,49.9,43.0,98,98,96,30.03,29.88,9,5,0,0.00
2013-5-7,61.5,52.5,45.9,58.4,51.6,45.4,98,97,78,30.01,29.85,7,4,0,0.00
2013-5-8,67.6,53.6,43.7,64.6,53.0,43.2,98,98,89,30.01,29.81,5,3,0,0.00
2013-5-9,62.8,49.7,43.0,59.8,49.1,42.5,98,98,90,29.96,29.78,28,10,0,0.75
2013-5-10,44.4,42.3,36.7,43.9,41.8,36.2,98,98,98,29.97,29.86,26,15,0,1.18
2013-5-11,55.4,45.7,36.7,54.8,43.2,36.2,98,92,66,29.97,29.64,14,5,0,0.21
2013-5-12,49.3,41.8,37.0,42.2,39.0,36.3,98,90,73,30.02,29.84,13,6,0,0.00
2013-5-15,65.5,54.1,52.7,64.0,47.6,-99.9,98,91,88,29.80,29.71,7,-54,0,0.00
2013-5-16,74.1,56.9,50.5,66.5,55.2,47.8,98,94,69,30.01,29.69,12,6,0,0.00
2013-5-17,51.6,48.6,45.5,51.1,48.1,45.0,98,98,98,30.15,30.00,13,7,0,0.70
2013-5-18,57.6,53.0,47.7,57.0,52.4,47.2,98,98,98,30.08,29.90,7,3,0,0.04
2013-5-19,71.6,55.6,52.3,62.5,51.3,-99.9,99,90,73,29.84,29.71,14,-13,0,0.00
2013-5-20,81.9,57.1,50.5,60.7,53.6,49.0,99,89,44,29.71,29.58,16,6,0,0.00
2013-5-21,66.7,55.9,50.9,59.8,54.4,50.3,99,95,78,29.67,29.45,21,6,0,0.25
2013-5-22,58.8,51.6,47.5,57.7,51.2,47.2,99,99,88,29.74,29.60,12,5,0,1.70
2013-5-23,51.4,45.9,42.6,51.1,43.4,38.2,99,91,82,30.32,29.74,23,13,0,0.14
2013-5-24,50.4,44.1,37.6,42.8,37.2,32.9,95,77,58,30.42,30.24,13,6,0,0.00
2013-5-25,53.1,46.5,38.5,44.6,40.5,36.3,98,80,61,30.39,30.24,9,4,0,0.00
2013-5-26,52.9,47.9,40.8,46.6,42.4,36.0,89,81,68,30.31,30.15,9,5,0,0.00
2013-5-27,51.4,48.1,46.6,48.7,45.4,39.6,99,91,69,30.17,29.90,14,6,0,0.05
2013-5-28,52.3,49.0,46.4,52.0,48.7,46.1,99,99,95,29.90,29.67,8,4,0,0.49
2013-5-29,65.7,55.5,48.0,59.7,54.1,47.7,99,95,79,29.86,29.72,14,5,0,0.00
2013-5-30,69.8,58.2,51.1,63.9,56.2,50.8,99,93,81,29.86,29.67,18,8,0,0.00
2013-5-31,67.1,56.3,52.5,62.8,55.4,52.2,99,97,86,29.78,29.62,12,6,0,0.16
2013-6-1,66.9,58.0,50.4,62.8,56.5,50.1,99,95,81,29.66,29.45,12,6,0,0.25
2013-6-2,58.8,50.4,42.8,58.5,47.2,42.4,99,89,70,30.02,29.59,9,4,0,0.05
2013-6-3,62.4,52.3,41.9,51.9,45.8,41.0,99,80,53,30.06,29.87,13,5,0,0.00
2013-6-4,57.4,50.5,46.8,50.5,46.3,41.5,96,86,63,30.17,29.99,9,4,0,0.01
2013-6-5,55.6,50.9,47.5,49.9,47.3,45.2,98,88,72,30.14,29.97,8,4,0,0.04
2013-6-6,54.1,50.9,49.3,50.3,48.7,47.1,97,92,85,29.97,29.89,12,5,0,0.08
2013-6-8,59.7,54.8,49.8,54.1,51.9,49.3,98,90,80,30.00,29.93,5,2,0,0.00
2013-6-9,59.9,55.6,49.5,57.9,52.9,47.9,99,91,83,30.01,29.81,7,4,0,0.00
2013-6-10,64.6,57.7,54.0,60.7,55.6,52.6,99,93,85,29.81,29.66,7,3,0,0.00
2013-6-11,81.1,64.4,55.8,65.1,59.4,55.5,99,85,55,29.82,29.63,11,3,0,0.00
2013-6-12,65.1,58.0,54.1,63.3,56.8,53.0,99,96,87,29.87,29.63,12,4,0,0.92
2013-6-13,71.1,59.4,53.1,56.9,53.5,50.1,97,81,58,30.05,29.68,12,6,0,0.00
2013-6-14,60.8,56.1,50.9,52.1,50.2,47.8,95,81,71,30.08,29.94,11,4,0,0.00
2013-6-15,66.2,59.1,50.2,64.8,55.4,45.2,99,88,75,30.03,29.74,11,4,0,1.17
2013-6-16,85.3,73.3,61.5,65.1,60.2,53.9,99,68,37,29.83,29.59,8,3,0,0.01
2013-6-17,67.1,59.9,56.1,59.4,55.0,51.8,92,84,67,29.96,29.67,16,6,0,0.03
2013-6-18,60.6,56.7,51.4,54.5,50.1,38.3,91,79,50,30.07,29.90,16,9,0,0.00
2013-6-19,64.9,57.1,46.0,52.2,46.5,39.7,91,69,44,30.12,29.95,10,5,0,0.00
2013-6-20,65.8,60.5,51.8,59.0,53.2,44.5,84,77,58,30.11,29.94,7,3,0,0.00
2013-6-21,70.3,62.3,58.1,66.3,59.5,53.7,99,91,78,30.08,29.83,16,3,0,0.20
2013-6-22,74.3,62.1,56.1,67.4,60.6,55.8,99,95,77,30.02,29.84,12,3,0,0.02
2013-6-23,82.8,68.5,57.0,69.1,63.2,56.7,99,84,61,29.96,29.70,12,5,0,0.00
2013-6-24,79.2,65.9,55.6,68.9,61.9,54.8,99,87,68,29.90,29.78,11,3,0,0.00
2013-6-25,75.0,63.7,55.6,69.5,62.2,54.8,99,95,83,29.86,29.71,8,2,0,0.30
2013-6-26,74.5,62.8,55.0,68.8,60.9,54.4,99,94,75,29.77,29.51,10,3,0,0.00
2013-6-27,84.0,63.9,55.6,69.9,61.0,55.3,99,91,52,29.73,29.54,9,3,0,0.05
2013-6-28,80.8,69.0,60.1,63.8,61.5,57.7,99,80,52,29.62,29.35,7,3,0,0.06
2013-6-29,66.0,62.2,58.6,62.3,58.1,55.3,98,87,75,29.78,29.55,15,8,0,0.01
2013-6-30,67.3,64.1,59.9,57.6,53.0,46.8,84,67,53,30.00,29.72,14,7,0,0.00
2013-7-1,69.4,64.5,57.9,58.7,54.2,46.3,80,70,54,30.07,29.89,14,6,0,0.00
2013-7-2,67.8,61.3,55.0,56.6,54.0,49.6,90,78,60,30.09,29.91,11,6,0,0.00
2013-7-3,62.6,60.8,59.0,60.7,58.5,56.1,99,93,81,30.05,29.97,9,4,0,0.29
2013-7-4,70.2,64.4,59.7,63.5,61.2,58.3,99,90,66,30.02,29.86,11,5,0,0.00
2013-7-5,73.0,67.4,59.9,64.6,60.8,54.7,99,81,54,29.99,29.83,15,5,0,0.00
2013-7-6,72.1,67.7,61.5,65.5,62.9,60.4,97,85,77,29.99,29.80,10,4,0,0.00
2013-7-7,76.8,69.8,63.7,69.4,65.7,62.2,99,87,75,29.92,29.75,8,3,0,0.00
2013-7-8,78.3,68.9,58.5,72.7,66.5,57.1,99,92,78,29.94,29.76,9,3,0,0.29
2013-7-9,76.5,65.4,59.4,73.1,64.3,59.1,99,96,88,29.95,29.71,9,3,0,0.07
2013-7-10,80.4,74.0,63.9,72.1,63.3,56.2,99,71,49,29.95,29.62,11,3,0,0.00
2013-7-11,77.5,64.5,56.5,61.9,57.1,51.0,90,78,52,30.06,29.83,7,3,0,0.00
2013-7-12,74.3,64.0,52.3,65.1,58.3,49.3,97,82,56,30.11,29.91,5,3,0,0.00
2013-7-13,76.1,67.7,57.0,67.7,62.2,56.7,99,83,63,30.12,29.92,8,4,0,0.00
2013-7-14,82.6,70.3,60.6,70.7,66.2,59.7,98,88,61,30.18,29.97,5,3,0,0.00
2013-7-15,88.0,73.5,65.5,72.5,69.1,65.2,99,87,55,30.21,30.03,4,2,0,0.00
2013-7-16,83.5,77.0,70.7,76.0,72.8,69.1,99,87,73,30.19,30.00,14,4,0,0.00
2013-7-17,96.6,78.9,71.8,76.7,73.3,69.4,99,85,46,30.18,29.98,8,2,0,0.11
2013-7-18,94.8,82.7,72.1,76.6,73.0,69.1,99,74,53,30.07,29.76,14,3,0,0.00
2013-7-19,93.9,85.2,72.5,74.7,70.9,64.4,76,63,50,29.77,29.48,8,3,0,0.00
2013-7-20,83.3,66.6,58.8,67.0,59.7,54.1,92,79,55,29.94,29.62,8,4,0,0.43
2013-7-21,71.6,65.5,61.5,65.2,59.8,54.6,99,82,63,29.95,29.79,8,4,0,1.10
2013-7-22,75.7,70.5,62.4,71.0,67.3,62.1,99,90,75,29.85,29.58,12,4,0,0.00
2013-7-23,75.6,69.1,57.9,70.6,58.8,52.4,88,70,54,29.96,29.55,11,5,0,0.00
2013-7-24,69.6,61.7,53.2,56.2,52.9,49.4,90,74,58,30.02,29.88,10,4,0,0.00
2013-7-25,74.1,65.8,53.8,63.2,58.2,49.8,91,77,60,30.03,29.83,16,6,0,0.00
2013-7-26,75.9,66.2,59.5,65.8,62.0,56.6,99,87,67,29.91,29.70,12,3,0,0.08
2013-7-27,62.8,57.8,54.1,56.6,50.1,45.8,94,76,57,29.87,29.77,8,2,0,0.00
2013-7-28,67.6,59.4,52.5,55.4,51.8,49.6,95,77,55,29.93,29.68,6,2,0,0.02
2013-7-29,64.6,59.3,55.4,56.6,54.0,50.0,97,83,68,30.15,29.93,7,3,0,0.00
2013-7-30,71.2,62.5,52.3,63.0,58.8,52.0,99,88,65,30.15,29.98,8,3,0,0.01
2013-7-31,67.8,63.8,59.0,65.0,62.6,58.7,99,96,88,30.04,29.84,11,3,0,0.11
2013-8-1,79.3,67.5,59.0,62.0,57.9,55.0,99,74,46,29.88,29.72,7,2,0,0.01
2013-8-2,80.6,69.5,58.3,66.4,60.7,54.7,98,75,53,29.88,29.59,10,2,0,0.50
2013-8-3,76.6,65.5,58.6,60.7,56.9,51.3,94,74,52,30.08,29.81,10,4,0,0.00
2013-8-4,71.4,63.4,55.0,58.8,56.0,52.4,98,78,61,30.14,29.99,8,4,0,0.00
2013-8-5,71.6,63.5,53.8,64.9,58.2,52.0,94,84,69,30.10,29.80,10,4,0,0.00
2013-8-6,75.6,68.4,60.1,68.2,65.0,59.5,99,89,74,29.80,29.63,10,3,0,0.00
2013-8-7,72.9,66.7,60.1,69.1,64.0,59.5,99,91,75,29.93,29.57,11,3,0,1.39
2013-8-8,73.0,65.6,57.9,62.4,57.2,52.9,99,76,52,29.97,29.82,7,4,0,0.00
2013-8-9,81.5,66.6,55.4,65.9,57.1,49.9,89,73,52,30.00,29.77,4,2,0,0.00
2013-8-10,74.8,64.6,57.0,62.9,58.6,54.9,95,82,57,30.08,29.88,5,3,0,0.00
2013-8-11,72.0,63.1,55.8,63.2,59.4,53.9,99,88,69,30.09,29.92,5,1,0,0.14
2013-8-12,73.0,65.6,59.0,66.5,62.5,51.1,99,90,75,29.98,29.74,18,4,0,0.24
2013-8-13,69.3,60.1,50.2,55.7,51.2,46.5,88,73,52,30.14,29.87,12,5,0,0.00
2013-8-14,67.8,59.6,49.1,53.5,50.2,44.8,86,72,53,30.17,30.00,9,4,0,0.00
2013-8-15,73.8,63.8,53.6,63.4,55.4,51.0,92,75,58,30.11,29.92,11,3,0,0.00
2013-8-16,73.4,60.2,56.5,60.8,54.9,52.4,90,83,60,30.08,29.95,5,2,0,0.00
2013-8-23,59.7,58.0,57.0,56.5,55.6,54.9,93,92,89,30.15,30.12,4,3,0,0.00
2013-8-24,75.6,66.2,53.6,66.8,61.4,52.8,98,85,72,30.21,30.03,8,4,0,0.00
2013-8-25,90.7,77.3,63.9,70.0,64.4,57.8,86,66,47,30.13,29.92,8,3,0,0.00
2013-8-26,88.0,76.2,64.0,73.1,66.3,58.7,92,72,56,30.00,29.82,10,3,0,0.00
2013-8-27,93.7,73.8,62.6,76.3,68.3,60.7,99,84,53,29.89,29.64,17,4,0,0.00
2013-8-28,74.5,67.3,61.0,70.2,65.4,60.7,99,94,74,29.89,29.74,10,4,0,0.00
2013-8-30,66.2,65.1,63.5,62.0,61.6,60.8,91,88,86,29.82,29.79,8,3,0,0.00
2013-8-31,71.2,67.2,61.5,67.1,64.2,61.2,99,90,82,29.82,29.65,7,3,0,0.00
2013-9-1,80.4,67.5,59.0,68.6,63.9,58.7,99,89,67,29.76,29.55,10,4,0,0.00
2013-9-2,69.1,63.8,55.8,61.5,57.1,50.7,97,80,64,29.95,29.73,7,3,0,0.00
2013-9-3,71.2,57.6,50.4,54.7,51.1,49.0,95,81,53,30.01,29.85,4,3,0,0.00
2013-9-13,50.0,47.2,45.5,45.0,44.2,43.6,93,89,83,30.15,30.12,4,3,0,0.00
2013-9-14,68.7,57.0,44.2,56.6,48.6,42.6,94,75,52,30.14,29.94,13,4,0,0.00
2013-9-15,60.4,56.9,51.6,57.4,52.6,45.3,95,86,66,30.21,29.96,11,2,0,0.54
2013-9-16,61.2,51.4,44.2,48.6,44.0,40.5,87,76,61,30.36,30.16,13,6,0,0.00
2013-9-27,65.7,63.7,60.3,61.4,59.5,57.6,94,86,80,30.04,30.03,7,5,0,0.00
2013-9-28,69.3,66.2,55.6,66.0,60.9,53.6,95,83,76,30.02,29.76,16,8,0,0.16
2013-9-29,63.9,55.1,47.1,53.8,50.4,46.8,99,85,62,29.99,29.83,5,2,0,0.10
2013-9-30,67.1,57.6,46.6,57.3,51.0,44.3,94,80,55,29.98,29.77,12,5,0,0.00
2013-10-1,79.5,63.0,48.7,62.6,56.7,47.1,99,82,55,29.89,29.65,11,3,0,0.00
2013-10-2,69.1,57.3,48.7,54.1,47.9,41.6,98,73,38,30.04,29.89,4,2,0,0.00
2013-10-3,71.6,59.6,52.0,64.7,57.6,50.8,99,94,79,29.96,29.74,10,3,0,0.58
2013-10-4,60.4,55.9,51.3,60.1,55.6,51.0,99,99,96,30.00,29.83,8,3,0,0.22
2013-10-5,67.1,61.5,54.3,66.6,61.2,54.0,99,99,97,29.93,29.66,7,3,0,0.40
2013-10-6,63.3,56.3,48.7,63.0,50.3,42.8,99,81,51,29.68,29.58,9,2,0,0.12
2013-10-7,64.2,53.4,46.4,48.3,45.5,43.3,97,76,49,30.06,29.61,6,2,0,0.01
2013-10-8,62.2,53.8,42.3,56.5,49.4,41.0,95,85,71,30.13,29.98,10,4,0,0.00
2013-10-9,61.5,54.8,47.1,55.6,50.5,46.3,97,86,73,30.18,30.04,12,4,0,0.00
2013-10-10,63.5,52.8,43.7,59.4,51.2,43.4,99,94,82,30.16,30.00,4,2,0,0.00
2013-10-11,63.9,55.0,45.7,59.3,52.9,45.4,99,93,84,30.06,29.91,10,3,0,0.00
2013-10-12,62.1,57.0,44.6,61.3,54.4,44.1,99,91,83,30.12,29.85,12,4,0,0.48
2013-10-13,60.3,48.1,38.7,46.9,42.2,38.1,99,82,52,30.39,30.12,9,2,0,0.00
2013-10-14,57.6,49.1,39.2,49.3,44.3,37.6,95,84,70,30.42,30.14,9,4,0,0.00
2013-10-15,56.3,52.9,45.0,53.9,51.4,44.5,99,95,84,30.13,29.69,11,4,0,0.30
2013-10-16,59.2,50.9,44.8,51.1,48.0,44.0,97,90,72,29.88,29.71,5,2,0,0.02
2013-10-17,54.7,47.1,39.9,46.5,43.2,39.1,99,87,59,29.87,29.71,5,1,0,0.06
2013-10-18,55.6,45.6,37.2,45.6,40.6,36.9,99,83,68,29.88,29.71,8,2,0,0.00
2013-10-19,55.0,44.0,36.0,40.8,37.0,33.2,98,79,44,29.87,29.64,8,2,0,0.02
2013-10-20,47.7,41.8,32.7,46.1,39.8,32.5,99,93,81,29.82,29.66,11,3,0,0.11
2013-10-21,46.8,40.9,32.2,44.9,33.2,23.5,97,75,61,29.89,29.67,7,3,0,0.00
2013-10-22,48.0,37.6,28.9,36.4,29.6,23.3,85,73,55,29.91,29.75,9,3,0,0.00
2013-10-23,45.5,37.1,28.2,31.9,27.8,22.9,94,71,43,29.97,29.79,8,3,0,0.00
2013-10-24,45.1,38.4,33.1,31.5,29.8,28.0,85,72,55,30.25,29.95,9,3,0,0.00
2013-10-25,50.2,41.1,28.0,32.8,29.6,26.5,94,66,45,30.32,29.81,9,4,0,0.00
2013-10-26,54.3,47.3,37.4,39.3,33.2,28.9,82,59,44,30.03,29.60,13,4,0,0.00
2013-10-27,54.0,42.0,29.8,35.9,32.4,28.5,95,71,45,30.03,29.83,9,2,0,0.00
2013-10-28,43.7,41.4,36.3,39.3,35.5,30.9,86,80,73,30.43,30.01,22,10,0,0.00
2013-10-29,47.1,43.6,37.4,44.0,40.3,31.2,99,88,78,30.41,30.13,11,6,0,0.00
2013-10-30,52.7,45.5,36.3,51.9,44.6,36.0,99,97,86,30.12,29.71,8,2,0,0.00
2013-10-31,59.5,51.7,46.2,59.2,51.3,45.4,99,99,94,29.71,29.11,10,2,0,0.88
2013-11-1,49.1,44.7,43.2,44.5,42.5,40.5,98,92,83,29.67,29.18,9,3,0,0.09
2013-11-2,47.5,42.1,33.6,42.1,37.8,32.2,96,85,68,30.14,29.67,13,4,0,0.00
2013-11-3,47.1,40.9,30.6,43.0,37.9,30.4,99,89,79,30.27,30.14,16,6,0,0.00
2013-11-4,51.1,47.1,45.5,45.8,43.4,42.3,91,87,82,30.25,30.04,21,12,0,0.00
2013-11-5,50.9,48.2,45.9,47.5,46.0,44.4,99,92,83,30.22,29.85,20,4,0,0.13
2013-11-6,55.0,43.0,27.7,54.7,40.6,26.7,99,91,78,30.12,29.64,12,4,0,0.27
2013-11-7,43.5,33.4,24.6,32.6,28.5,24.1,98,83,61,30.21,30.07,6,2,0,0.00
2013-11-8,45.0,40.8,27.9,39.1,34.4,26.2,95,78,59,30.21,29.80,22,10,0,0.00
2013-11-9,54.5,46.9,40.5,41.8,37.0,28.2,82,68,59,29.98,29.66,15,6,0,0.00
2013-11-10,48.6,42.4,37.6,32.8,30.8,28.7,74,64,51,30.22,29.97,10,4,0,0.00
2013-11-11,42.4,32.6,23.4,36.5,25.4,15.6,97,75,61,30.53,30.02,12,4,0,0.09
2013-11-12,32.0,25.1,19.0,19.2,16.2,13.4,81,69,50,30.69,30.54,10,4,0,0.00
2013-11-13,44.2,32.0,19.6,21.4,17.7,15.0,85,58,33,30.55,30.00,12,5,0,0.00
2013-11-14,48.7,40.8,33.1,33.4,27.2,19.7,71,58,48,30.00,29.81,9,4,0,0.00
2013-11-15,51.1,42.2,37.2,40.4,35.9,32.3,89,78,55,29.89,29.81,11,4,0,0.00
2013-11-16,49.1,44.1,36.7,48.8,43.2,34.3,99,97,89,29.89,29.46,21,9,0,0.05
2013-11-17,55.2,47.2,40.3,54.9,45.6,33.9,99,95,75,29.55,28.97,19,7,0,1.16
2013-11-18,41.0,34.2,26.6,35.8,26.0,21.1,83,72,64,30.24,29.54,12,6,0,0.00
2013-11-19,40.5,31.6,22.1,35.9,26.8,20.1,92,83,69,30.37,30.25,14,6,0,0.00
2013-11-20,41.5,40.0,37.2,37.5,34.7,32.6,95,81,73,30.26,30.11,23,13,0,0.06
2013-11-21,48.4,41.4,37.4,41.7,39.3,36.1,98,92,77,30.21,30.09,7,2,0,0.01
2013-11-22,39.4,31.4,24.1,37.0,26.9,17.2,97,84,63,30.44,30.20,12,4,0,0.01
2013-11-23,26.4,19.6,11.5,18.1,8.8,3.0,78,63,48,30.72,30.38,11,5,0,0.00
2013-11-24,26.6,18.3,8.2,9.3,6.6,2.9,92,62,36,30.72,30.24,7,3,0,0.00
2013-11-25,30.9,27.0,23.0,27.1,20.6,7.2,94,78,48,30.23,29.97,14,5,0,0.00
2013-11-26,31.6,26.8,14.0,28.6,19.1,6.7,90,74,47,30.20,29.98,16,4,0,0.00
2013-11-27,28.4,20.7,12.9,20.2,13.5,7.5,93,74,55,30.25,30.13,9,4,0,0.00
2013-11-28,28.2,22.7,15.3,20.4,17.7,13.4,93,82,66,30.52,30.18,6,2,0,0.00
2013-11-29,35.1,24.8,12.7,29.7,19.4,11.5,95,81,62,30.63,30.36,19,5,0,0.00
2013-11-30,46.9,35.6,30.0,36.8,29.8,24.9,92,80,59,30.36,29.98,10,3,0,0.00
2013-12-1,39.9,34.0,28.6,35.0,31.1,27.1,96,89,78,30.11,29.98,9,4,0,0.00
2013-12-2,39.2,34.2,24.3,36.0,31.9,23.8,98,91,83,29.98,29.81,18,7,0,0.01
2013-12-3,37.9,36.9,35.1,37.6,36.4,34.0,99,98,94,29.81,29.71,20,12,0,0.28
2013-12-4,49.6,40.8,36.9,49.3,40.3,36.6,99,98,90,29.76,29.39,10,4,0,0.19
2013-12-5,39.0,26.0,15.6,36.7,19.4,9.7,93,76,64,30.26,29.51,14,5,0,0.00
2013-12-6,18.3,11.7,7.0,9.8,5.4,1.9,87,76,62,30.56,30.24,10,5,0,0.00
2013-12-7,16.3,7.2,1.4,4.8,1.6,-2.0,92,78,58,30.69,30.56,11,3,0,0.00
2013-12-8,28.8,18.1,2.8,26.5,15.1,0.3,97,88,73,30.66,29.91,18,9,0,0.00
2013-12-9,28.9,14.7,-2.4,26.9,10.3,-6.1,97,83,68,30.20,29.86,10,4,0,0.00
2013-12-10,20.1,8.1,-6.0,12.7,3.1,-8.6,88,80,69,30.27,29.89,11,3,0,0.00
2013-12-11,11.7,4.4,-6.9,7.7,-1.9,-10.3,93,76,53,30.57,30.26,9,3,0,0.00
2013-12-12,17.4,9.4,-4.0,12.3,2.9,-9.1,82,75,62,30.54,30.17,8,3,0,0.00
2013-12-13,27.1,21.3,17.2,23.0,17.0,12.4,87,83,78,30.25,30.17,18,7,0,0.00
2013-12-14,26.8,24.6,18.7,24.9,22.5,17.0,95,92,84,30.23,29.90,19,10,0,0.00
2013-12-15,19.4,10.5,-0.8,17.3,4.1,-5.8,93,75,58,30.15,29.87,13,4,0,0.00
2013-12-16,21.2,8.8,-6.2,16.3,4.3,-9.0,92,82,54,30.19,29.98,8,2,0,0.00
2013-12-17,35.4,24.7,13.1,27.8,20.4,10.7,94,84,67,30.01,29.79,7,3,0,0.05
2013-12-18,31.6,22.9,7.9,26.7,16.8,5.3,89,78,65,30.13,29.73,15,4,0,0.00
2013-12-19,33.4,28.7,21.9,31.2,26.4,20.7,99,91,81,29.99,29.76,22,9,0,0.00
2013-12-20,31.5,29.2,25.0,30.5,27.9,24.2,99,95,91,29.88,29.78,23,11,0,0.00
2013-12-21,33.3,29.3,25.0,31.6,27.7,24.3,98,94,88,29.86,29.69,22,9,0,0.00
2013-12-22,32.0,26.5,20.8,29.6,25.7,19.2,99,96,88,30.08,29.67,23,8,0,0.00
2013-12-23,28.9,17.9,8.4,25.2,15.6,6.6,96,91,74,30.37,30.08,0,0,0,0.00
2013-12-24,26.6,11.5,-2.2,22.5,8.4,-4.4,93,88,52,30.52,30.34,0,0,0,0.00
2013-12-25,26.1,20.2,14.0,21.8,17.9,11.6,96,91,78,30.33,30.04,0,0,0,0.00
2013-12-26,27.9,19.5,11.7,21.1,16.5,10.3,96,89,63,30.22,30.04,0,0,0,0.00
2013-12-27,38.1,26.4,7.9,32.0,22.9,6.5,96,87,73,30.28,29.93,7,2,0,0.08
2013-12-28,43.9,34.9,23.0,35.1,30.4,22.4,99,84,70,30.03,29.70,10,4,0,0.05
2013-12-29,39.7,19.7,-0.2,32.8,14.6,-4.4,96,80,70,30.24,29.67,20,5,0,0.00
2013-12-30,6.1,-1.2,-10.3,-1.6,-7.2,-13.3,87,76,53,30.35,30.21,7,3,0,0.00
2013-12-31,11.5,5.2,-0.9,3.6,-0.5,-7.4,87,77,67,30.43,30.19,8,3,0,0.00
2014-1-1,13.5,6.4,-2.0,8.5,1.9,-8.3,86,81,73,30.43,30.31,10,5,0,0.00
2014-1-2,13.3,8.1,0.3,8.7,2.8,-5.7,92,79,65,30.45,30.27,13,5,0,0.00